| time (UTC) | temp F | wind direction | speed knots | gust knots | rain 1hr in | rain 24hr in | rain mn in | humidity % | barometer mb |
| 20260507163003 | 66 | 53 | 1.7 | 7.8 | 0.00 | 0.00 | 0.00 | 49 | 1013.5 |
| 20260507161516 | 66 | 44 | 1.7 | 5.2 | 0.00 | 0.00 | 0.00 | 48 | 1013.6 |
| 20260507160056 | 66 | 84 | 0.9 | 7.0 | 0.00 | 0.00 | 0.00 | 48 | 1013.6 |
| 20260507154509 | 64 | 341 | 0.0 | 2.6 | 0.00 | 0.00 | 0.00 | 50 | 1013.7 |
| 20260507153009 | 63 | 340 | 0.9 | 3.5 | 0.00 | 0.00 | 0.00 | 51 | 1013.7 |
| 20260507151521 | 63 | 53 | 0.9 | 5.2 | 0.00 | 0.00 | 0.00 | 51 | 1014.0 |
| 20260507150018 | 63 | 360 | 0.9 | 5.2 | 0.00 | 0.00 | 0.00 | 51 | 1014.0 |
| 20260507144517 | 63 | 40 | 2.6 | 5.2 | 0.00 | 0.00 | 0.00 | 51 | 1014.0 |
| 20260507143020 | 63 | 360 | 1.7 | 7.0 | 0.00 | 0.00 | 0.00 | 51 | 1014.1 |
| 20260507141515 | 64 | 44 | 3.5 | 9.6 | 0.00 | 0.00 | 0.00 | 49 | 1014.0 |
| 20260507140015 | 67 | 11 | 3.5 | 7.0 | 0.00 | 0.00 | 0.00 | 47 | 1014.2 |
| 20260507134515 | 66 | 81 | 0.0 | 1.7 | 0.00 | 0.00 | 0.00 | 48 | 1014.5 |
| 20260507133009 | 63 | 79 | 2.6 | 6.1 | 0.00 | 0.00 | 0.00 | 53 | 1014.5 |
| 20260507131513 | 61 | 341 | 0.9 | 4.3 | 0.00 | 0.00 | 0.00 | 54 | 1014.4 |
| 20260507130010 | 63 | 309 | 3.5 | 7.0 | 0.00 | 0.00 | 0.00 | 53 | 1014.5 |
| 20260507124509 | 61 | 319 | 1.7 | 5.2 | 0.00 | 0.00 | 0.00 | 54 | 1014.5 |
| 20260507123018 | 62 | 92 | 2.6 | 5.2 | 0.00 | 0.00 | 0.00 | 52 | 1014.6 |
| 20260507121517 | 60 | 360 | 3.5 | 5.2 | 0.00 | 0.00 | 0.00 | 57 | 1014.8 |
| 20260507120032 | 60 | 346 | 2.6 | 7.8 | 0.00 | 0.00 | 0.00 | 57 | 1014.8 |
| 20260507114520 | 61 | 50 | 2.6 | 7.8 | 0.00 | 0.00 | 0.00 | 57 | 1014.9 |
| 20260507113018 | 60 | 259 | 0.0 | 4.3 | 0.00 | 0.00 | 0.00 | 60 | 1014.7 |
| 20260507111551 | 58 | 341 | 0.9 | 3.5 | 0.00 | 0.00 | 0.00 | 64 | 1015.0 |
| 20260507110009 | 57 | 344 | 1.7 | 7.0 | 0.00 | 0.00 | 0.00 | 64 | 1014.9 |
| 20260507104510 | 57 | 329 | 0.9 | 4.3 | 0.00 | 0.00 | 0.00 | 65 | 1015.0 |
| 20260507103007 | 56 | 311 | 1.7 | 7.8 | 0.00 | 0.00 | 0.00 | 66 | 1015.0 |
| 20260507101506 | 57 | 321 | 3.5 | 8.7 | 0.00 | 0.00 | 0.00 | 65 | 1015.1 |
| 20260507100003 | 57 | 16 | 1.7 | 5.2 | 0.00 | 0.00 | 0.00 | 66 | 1015.1 |
| 20260507094502 | 57 | 355 | 0.9 | 4.3 | 0.00 | 0.00 | 0.00 | 64 | 1015.2 |
| 20260507093004 | 58 | 325 | 1.7 | 7.0 | 0.00 | 0.00 | 0.00 | 67 | 1015.2 |
| 20260507091503 | 57 | 339 | 1.7 | 7.8 | 0.00 | 0.00 | 0.00 | 67 | 1015.1 |
| 20260507090022 | 57 | 343 | 2.6 | 6.1 | 0.00 | 0.00 | 0.00 | 68 | 1015.0 |
| 20260507084516 | 57 | 338 | 3.5 | 7.8 | 0.00 | 0.00 | 0.00 | 72 | 1014.9 |
| 20260507083013 | 57 | 360 | 1.7 | 5.2 | 0.00 | 0.00 | 0.00 | 74 | 1015.0 |
| 20260507081520 | 55 | 360 | 1.7 | 7.8 | 0.00 | 0.00 | 0.00 | 78 | 1015.0 |
| 20260507080011 | 54 | 47 | 2.6 | 6.1 | 0.00 | 0.00 | 0.00 | 81 | 1014.9 |
| 20260507074521 | 52 | 32 | 3.5 | 5.2 | 0.00 | 0.00 | 0.00 | 85 | 1014.9 |
| 20260507073008 | 51 | 51 | 1.7 | 5.2 | 0.00 | 0.00 | 0.00 | 87 | 1014.9 |
| 20260507071506 | 50 | 40 | 2.6 | 7.0 | 0.00 | 0.00 | 0.00 | 89 | 1014.8 |
| 20260507070010 | 48 | 16 | 1.7 | 6.1 | 0.00 | 0.00 | 0.00 | 90 | 1014.9 |
| 20260507064506 | 47 | 21 | 1.7 | 5.2 | 0.00 | 0.01 | 0.00 | 91 | 1014.9 |
| 20260507063103 | 46 | 338 | 2.6 | 4.3 | 0.00 | 0.01 | 0.00 | 91 | 1014.8 |
| 20260507061518 | 45 | 346 | 0.9 | 4.3 | 0.00 | 0.01 | 0.00 | 92 | 1014.7 |
| 20260507060017 | 44 | 332 | 1.7 | 4.3 | 0.00 | 0.01 | 0.00 | 92 | 1014.7 |
| 20260507054519 | 42 | 330 | 1.7 | 4.3 | 0.00 | 0.02 | 0.00 | 92 | 1014.6 |
| 20260507053012 | 42 | 324 | 1.7 | 4.3 | 0.00 | 0.02 | 0.00 | 92 | 1014.4 |
| 20260507051510 | 41 | 329 | 1.7 | 4.3 | 0.00 | 0.02 | 0.00 | 92 | 1014.3 |
| 20260507050017 | 41 | 316 | 2.6 | 4.3 | 0.00 | 0.02 | 0.00 | 91 | 1014.1 |
| 20260507044506 | 41 | 310 | 2.6 | 4.3 | 0.00 | 0.03 | 0.00 | 91 | 1014.1 |
| 20260507043004 | 41 | 313 | 2.6 | 3.5 | 0.00 | 0.03 | 0.00 | 91 | 1014.0 |
| 20260507041505 | 41 | 313 | 2.6 | 4.3 | 0.00 | 0.03 | 0.00 | 91 | 1014.0 |
| 20260507040007 | 41 | 311 | 2.6 | 4.3 | 0.00 | 0.03 | 0.00 | 91 | 1013.8 |
| 20260507034603 | 41 | 315 | 2.6 | 4.3 | 0.00 | 0.05 | 0.00 | 90 | 1013.7 |
| 20260507031515 | 41 | 313 | 2.6 | 4.3 | 0.00 | 0.05 | 0.00 | 90 | 1013.8 |
| 20260507030018 | 42 | 311 | 3.5 | 5.2 | 0.00 | 0.05 | 0.00 | 90 | 1013.8 |
| 20260507024511 | 42 | 310 | 3.5 | 4.3 | 0.00 | 0.06 | 0.00 | 90 | 1013.7 |
| 20260507023010 | 42 | 311 | 2.6 | 5.2 | 0.00 | 0.06 | 0.00 | 90 | 1013.9 |
| 20260507021509 | 42 | 313 | 2.6 | 5.2 | 0.00 | 0.06 | 0.00 | 90 | 1013.9 |
| 20260507020007 | 42 | 315 | 1.7 | 3.5 | 0.00 | 0.06 | 0.00 | 90 | 1013.7 |
| 20260507014508 | 42 | 315 | 1.7 | 4.3 | 0.00 | 0.08 | 0.00 | 90 | 1013.6 |
| 20260507013007 | 42 | 315 | 0.9 | 2.6 | 0.00 | 0.08 | 0.00 | 89 | 1013.5 |
| 20260507011506 | 42 | 315 | 0.0 | 2.6 | 0.00 | 0.08 | 0.00 | 89 | 1013.6 |
| 20260507010007 | 42 | 315 | 1.7 | 4.3 | 0.00 | 0.08 | 0.00 | 89 | 1013.4 |
| 20260507004507 | 42 | 313 | 2.6 | 5.2 | 0.00 | 0.09 | 0.00 | 89 | 1013.5 |
| 20260507003004 | 43 | 312 | 3.5 | 4.3 | 0.00 | 0.09 | 0.00 | 89 | 1013.4 |
| 20260507001607 | 43 | 313 | 1.7 | 4.3 | 0.00 | 0.09 | 0.00 | 88 | 1013.5 |
| 20260507000030 | 43 | 308 | 1.7 | 4.3 | 0.00 | 0.09 | 0.00 | 88 | 1013.4 |
| 20260506234521 | 43 | 315 | 0.9 | 3.5 | 0.00 | 0.10 | 0.00 | 87 | 1013.4 |
| 20260506233017 | 43 | 316 | 1.7 | 3.5 | 0.00 | 0.10 | 0.00 | 87 | 1013.5 |
| 20260506231515 | 44 | 316 | 1.7 | 4.3 | 0.00 | 0.10 | 0.00 | 86 | 1013.4 |
| 20260506230013 | 44 | 316 | 1.7 | 2.6 | 0.00 | 0.10 | 0.00 | 86 | 1013.5 |
| 20260506224512 | 44 | 316 | 1.7 | 3.5 | 0.00 | 0.13 | 0.00 | 86 | 1013.3 |
| 20260506223012 | 45 | 317 | 1.7 | 3.5 | 0.00 | 0.13 | 0.00 | 85 | 1013.4 |
| 20260506221510 | 45 | 316 | 1.7 | 4.3 | 0.00 | 0.13 | 0.00 | 84 | 1013.2 |
| 20260506220015 | 46 | 315 | 1.7 | 3.5 | 0.00 | 0.13 | 0.00 | 84 | 1013.3 |
| 20260506214506 | 46 | 315 | 0.9 | 4.3 | 0.00 | 0.18 | 0.13 | 83 | 1013.1 |
| 20260506213127 | 46 | 316 | 1.7 | 4.3 | 0.00 | 0.18 | 0.13 | 82 | 1013.0 |
| 20260506211518 | 47 | 317 | 1.7 | 3.5 | 0.00 | 0.18 | 0.13 | 81 | 1013.0 |
| 20260506210016 | 48 | 316 | 1.7 | 3.5 | 0.00 | 0.18 | 0.13 | 80 | 1012.9 |
| 20260506204520 | 48 | 317 | 1.7 | 3.5 | 0.00 | 0.27 | 0.13 | 79 | 1012.8 |
| 20260506203017 | 49 | 316 | 0.9 | 3.5 | 0.00 | 0.27 | 0.13 | 78 | 1012.7 |
| 20260506201519 | 49 | 315 | 1.7 | 3.5 | 0.00 | 0.27 | 0.13 | 77 | 1012.6 |
| 20260506200010 | 50 | 315 | 0.9 | 3.5 | 0.00 | 0.27 | 0.13 | 76 | 1012.5 |
| 20260506194515 | 50 | 311 | 1.7 | 4.3 | 0.00 | 0.39 | 0.13 | 75 | 1012.3 |
| 20260506193006 | 51 | 312 | 2.6 | 4.3 | 0.00 | 0.39 | 0.13 | 74 | 1012.1 |
| 20260506191505 | 52 | 304 | 1.7 | 4.3 | 0.00 | 0.39 | 0.13 | 73 | 1011.8 |
| 20260506190006 | 52 | 320 | 2.6 | 7.0 | 0.00 | 0.39 | 0.13 | 71 | 1011.7 |
| 20260506184605 | 53 | 314 | 2.6 | 7.0 | 0.00 | 0.46 | 0.13 | 70 | 1011.6 |
| 20260506183019 | 53 | 300 | 5.2 | 9.6 | 0.00 | 0.46 | 0.13 | 68 | 1011.4 |
| 20260506181517 | 54 | 315 | 6.1 | 11.3 | 0.00 | 0.46 | 0.13 | 67 | 1011.3 |
| 20260506180016 | 54 | 306 | 3.5 | 10.4 | 0.00 | 0.46 | 0.13 | 69 | 1011.2 |
| 20260506174515 | 54 | 307 | 7.0 | 11.3 | 0.00 | 0.53 | 0.13 | 70 | 1011.0 |
| 20260506173013 | 54 | 311 | 7.0 | 11.3 | 0.00 | 0.53 | 0.13 | 70 | 1010.9 |
| 20260506171512 | 55 | 310 | 9.6 | 15.6 | 0.00 | 0.53 | 0.13 | 67 | 1010.8 |
| 20260506170011 | 57 | 305 | 7.0 | 14.8 | 0.00 | 0.53 | 0.13 | 65 | 1010.5 |
| 20260506164508 | 58 | 331 | 4.3 | 11.3 | 0.00 | 0.55 | 0.13 | 67 | 1010.6 |